Location: Bukit Setapoh
(2.2500°N, 113.8000°E)
Time: 22:20:21
(UTC+00:00)

H-2A R/B - Pass Details

Date: 25 July 2021
Orbit: 733 x 836 km, 98.2° (Epoch: 18 September)

Event Time Altitude Azimuth Distance (km) Brightness Sun altitude
Rises 11:17:30 0° 172° (S) 3,382 5.1 -10.1°
Reaches altitude 10° 11:19:53 10° 174° (S) 2,446 4.4 -10.6°
Maximum altitude 11:25:18 71° 257° (WSW) 875 2.5 -11.9°
Drops below altitude 10° 11:30:39 10° 342° (NNW) 2,410 5.1 -13.2°
Sets 11:32:58 0° 344° (NNW) 3,329 5.9 -13.7°
